Erie, PA

5:15 AM EDT on July 27, 2017 (GMT -0400)
Erie International

Weather History for KERI - April, 2014

Change the Weather History Date:

Friday, April 4, 2014

  Actual Average Record
Temperature  
Mean Temperature 47 °F 43 °F  
Max Temperature 58 °F 51 °F 77 °F (1928)
Min Temperature 35 °F 34 °F 15 °F (1874)
Degree Days  
Heating Degree Days 18 22  
Month to date heating degree days 81 92  
Since 1 July heating degree days 6041 5368  
Cooling Degree Days 0 0  
Month to date cooling degree days 0 0  
Year to date cooling degree days 0 1  
Moisture  
Dew Point 41 °F    
Average Humidity 79    
Maximum Humidity 93    
Minimum Humidity 65    
Precipitation  
Precipitation 0.35 in 0.11 in 1.43 in (1957)
Month to date precipitation 0.45 0.45  
Year to date precipitation 9.53 8.74  
Snow  
Snow 0.00 in 0.20 in - ()
Month to date snowfall 0.0 0.9  
Since 1 July snowfall 137.2 98.6  
Snow Depth 0.00 in    
Sea Level Pressure  
Sea Level Pressure 29.64 in    
Wind  
Wind Speed 16 mph (SSW)    
Max Wind Speed 32 mph    
Max Gust Speed 53 mph    
Visibility 8 miles    
Events Rain , Thunderstorm    
T = Trace of Precipitation, MM = Missing Value Source: NWS Daily Summary

Daily Weather History Graph

Daily Weather History Graph

Search for Another Location

Airport or City:

Trip Planner

Search our weather history database for the weather conditions in past years. The results will help you decide how hot, cold, wet, or windy it might be!

Date:

Astronomy

Apr. 04, 2014 Rise Set
Actual Time 6:58 AM EDT 7:49 PM EDT
Civil Twilight 6:29 AM EDT 8:18 PM EDT
Nautical Twilight 5:56 AM EDT 8:51 PM EDT
Astronomical Twilight 5:21 AM EDT 9:27 PM EDT
Moon 10:10 AM EDT (4/4) 12:10 AM EDT (4/4)
Length of Visible Light 13h 48m
Length of Day
12h 51m
Waxing Crescent, 25% of the Moon is Illuminated
Apr 4
Waxing Crescent
Apr 7
First Quarter
Apr 15
Full
Apr 22
Last Quarter
Apr 29
New

Hourly Weather History & Observations

Time (EDT) Temp. Windchill Dew Point Humidity Pressure Visibility Wind Dir Wind Speed Gust Speed Precip Events Conditions
12:51 AM 36.0 °F 29.6 °F 34.0 °F 93% 29.84 in 4.0 mi ENE 8.1 mph - N/A   Overcast
1:13 AM 37.4 °F 31.4 °F 33.8 °F 87% 29.80 in 5.0 mi ENE 8.1 mph - N/A   Overcast
1:47 AM 35.6 °F 28.6 °F 33.8 °F 93% 29.79 in 4.0 mi ENE 9.2 mph - N/A   Overcast
1:51 AM 35.1 °F 28.6 °F 33.1 °F 92% 29.81 in 5.0 mi ENE 8.1 mph - N/A   Overcast
2:51 AM 37.0 °F 30.4 °F 34.0 °F 89% 29.79 in 8.0 mi ENE 9.2 mph - N/A   Overcast
3:26 AM 37.4 °F - 35.6 °F 93% 29.77 in 8.0 mi Calm Calm - N/A   Overcast
3:51 AM 37.0 °F 31.6 °F 34.0 °F 89% 29.77 in 8.0 mi NE 6.9 mph - N/A   Overcast
3:58 AM 37.4 °F 32.8 °F 33.8 °F 87% 29.75 in 8.0 mi ENE 5.8 mph - N/A   Overcast
4:51 AM 37.9 °F 35.5 °F 35.1 °F 89% 29.75 in 9.0 mi NE 3.5 mph - N/A   Overcast
5:51 AM 42.1 °F 40.2 °F 39.0 °F 89% 29.74 in 8.0 mi Variable 3.5 mph - 0.00 in   Overcast
6:38 AM 48.2 °F - 44.6 °F 87% 29.70 in 10.0 mi SSE 10.4 mph - N/A   Overcast
6:51 AM 48.9 °F - 45.0 °F 86% 29.71 in 10.0 mi SSE 12.7 mph 19.6 mph N/A   Overcast
7:13 AM 48.2 °F - 44.6 °F 87% 29.70 in 10.0 mi SSE 11.5 mph - N/A   Overcast
7:41 AM 48.2 °F - 46.4 °F 93% 29.68 in 10.0 mi SSE 12.7 mph - N/A   Overcast
7:51 AM 48.9 °F - 46.0 °F 90% 29.69 in 10.0 mi SE 13.8 mph - N/A   Overcast
8:01 AM 48.2 °F - 46.4 °F 93% 29.68 in 10.0 mi SSE 12.7 mph - N/A   Overcast
8:22 AM 50.0 °F - 46.4 °F 87% 29.66 in 10.0 mi SSE 15.0 mph - 0.01 in   Overcast
8:51 AM 51.1 °F - 46.9 °F 86% 29.67 in 10.0 mi SSE 16.1 mph 21.9 mph 0.01 in   Overcast
9:07 AM 51.8 °F - 46.4 °F 82% 29.65 in 10.0 mi SSE 13.8 mph - N/A   Overcast
9:39 AM 51.8 °F - 48.2 °F 88% 29.64 in 5.0 mi SSE 12.7 mph - 0.00 in Rain Light Rain
9:51 AM 51.1 °F - 48.0 °F 89% 29.64 in 8.0 mi SE 13.8 mph - 0.01 in Rain Light Rain
10:51 AM 53.1 °F - 48.9 °F 86% 29.59 in 8.0 mi SSE 18.4 mph 26.5 mph 0.03 in Rain Light Rain
11:51 AM 54.0 °F - 48.9 °F 83% 29.55 in 10.0 mi SSE 17.3 mph 25.3 mph 0.02 in Rain Light Rain
12:51 PM 54.0 °F - 48.9 °F 83% 29.50 in 7.0 mi SSE 17.3 mph 28.8 mph 0.00 in Rain Light Rain
1:51 PM 54.0 °F - 48.9 °F 83% 29.47 in 10.0 mi SSE 20.7 mph 31.1 mph 0.06 in Rain Light Rain
2:51 PM 55.9 °F - 48.9 °F 77% 29.45 in 10.0 mi South 16.1 mph 39.1 mph 0.00 in   Mostly Cloudy
3:09 PM 55.4 °F - 48.2 °F 77% 29.47 in 10.0 mi South 21.9 mph 31.1 mph N/A   Mostly Cloudy
3:51 PM 55.9 °F - 50.0 °F 80% 29.46 in 10.0 mi South 17.3 mph 24.2 mph 0.00 in   Overcast
4:51 PM 55.9 °F - 52.0 °F 87% 29.45 in 7.0 mi South 13.8 mph - 0.04 in Rain Light Rain
5:00 PM 55.4 °F - 51.8 °F 88% 29.43 in 5.0 mi SSE 11.5 mph - 0.01 in Rain Light Rain
5:34 PM 57.2 °F - 53.6 °F 88% 29.51 in 2.5 mi WSW 27.6 mph 38.0 mph 0.01 in Thunderstorm Overcast
5:41 PM 51.8 °F - 46.4 °F 82% 29.51 in 1.2 mi West 20.7 mph 38.0 mph 0.10 in Rain , Thunderstorm Thunderstorms and Rain
5:47 PM 50.0 °F - 46.4 °F 87% 29.52 in 3.0 mi WSW 19.6 mph 27.6 mph 0.12 in Rain , Thunderstorm Thunderstorms and Rain
5:51 PM 48.9 °F - 46.0 °F 90% 29.54 in 3.0 mi West 18.4 mph 27.6 mph 0.12 in Rain , Thunderstorm Rain
6:00 PM 48.2 °F - 46.4 °F 93% 29.53 in 3.0 mi WSW 18.4 mph 32.2 mph 0.03 in Rain , Thunderstorm Rain
6:03 PM 48.2 °F - 44.6 °F 87% 29.54 in 3.0 mi West 17.3 mph 32.2 mph 0.03 in Rain Rain
6:40 PM 44.6 °F 37.2 °F 42.8 °F 93% 29.56 in 6.0 mi West 17.3 mph 28.8 mph 0.06 in   Overcast
6:51 PM 46.0 °F 39.6 °F 42.1 °F 86% 29.59 in 3.0 mi West 15.0 mph 32.2 mph 0.06 in Rain Light Rain
6:56 PM 44.6 °F 36.4 °F 42.8 °F 93% 29.58 in 2.5 mi WSW 20.7 mph 32.2 mph 0.00 in Rain Light Rain
7:09 PM 44.6 °F 36.4 °F 41.0 °F 87% 29.59 in 5.0 mi WSW 20.7 mph 32.2 mph 0.00 in Rain Light Rain
7:35 PM 42.8 °F 34.5 °F 39.2 °F 87% 29.59 in 10.0 mi WSW 18.4 mph 32.2 mph 0.00 in   Overcast
7:51 PM 42.1 °F 32.6 °F 37.0 °F 82% 29.61 in 10.0 mi WSW 23.0 mph 31.1 mph 0.00 in   Overcast
8:51 PM 42.1 °F 32.3 °F 34.0 °F 73% 29.66 in 10.0 mi West 24.2 mph 52.9 mph N/A   Overcast
9:00 PM 42.8 °F 32.9 °F 33.8 °F 70% 29.66 in 10.0 mi WSW 26.5 mph 49.5 mph N/A   Overcast
9:08 PM 42.8 °F 34.3 °F 33.8 °F 70% 29.67 in 10.0 mi WSW 19.6 mph 40.3 mph N/A   Overcast
9:22 PM 41.0 °F 30.9 °F 33.8 °F 76% 29.68 in 10.0 mi WSW 24.2 mph 43.7 mph N/A   Overcast
9:29 PM 41.0 °F 30.5 °F 33.8 °F 76% 29.69 in 10.0 mi WSW 26.5 mph 39.1 mph N/A   Overcast
9:51 PM 42.1 °F 33.3 °F 33.1 °F 70% 29.70 in 10.0 mi WSW 19.6 mph 35.7 mph N/A   Overcast
9:59 PM 42.8 °F 34.8 °F 32.0 °F 66% 29.70 in 10.0 mi WSW 17.3 mph 31.1 mph N/A   Overcast
10:23 PM 42.8 °F 35.8 °F 33.8 °F 70% 29.71 in 9.0 mi WSW 13.8 mph 28.8 mph 0.00 in Rain Light Rain
10:46 PM 41.0 °F 31.1 °F 30.2 °F 65% 29.72 in 10.0 mi WSW 23.0 mph 48.3 mph 0.00 in   Overcast
10:51 PM 41.0 °F 29.8 °F 30.9 °F 67% 29.73 in 10.0 mi WSW 29.9 mph 43.7 mph 0.00 in   Overcast
11:51 PM 39.0 °F 29.6 °F 30.0 °F 70% 29.75 in 10.0 mi WSW 18.4 mph 31.1 mph N/A   Overcast